Theta_e
314 313 311 311 310 310 311 311 313 315 316 316 315 314 314 314 314 314 313 314 313 313 313 313 312 312 311 309 309 311 310 309 310 310 311 311 310 310 310 311 313 313 312 313 315 314 314 313 313 314 314 313 311 312 314 314 313 315 316 314 313 316 316 318 322 321 319 317 313 313 312 311 313 311 310 311 310 311 318 319 321 326 321 323 337 337 327
314 313 311 310 310 311 311 312 312 314 316 316 315 315 314 314 313 313 314 313 313 315 314 314 314 313 311 310 310 311 309 309 310 310 310 311 310 311 310 310 313 312 312 313 313 313 314 314 312 313 315 313 312 312 314 315 314 315 317 314 311 314 314 317 324 322 317 319 318 317 315 312 312 312 311 311 311 311 314 316 323 325 317 321 337 336 322
314 313 311 310 310 311 312 313 312 313 316 316 316 316 315 315 315 312 312 313 313 314 313 312 314 314 313 312 312 312 311 310 310 310 310 309 309 311 312 310 311 312 312 312 311 312 314 313 313 315 315 313 312 311 312 314 315 315 317 314 312 314 315 318 326 325 320 321 320 318 316 314 313 312 312 312 312 312 315 319 324 322 317 323 330 325 319
314 312 312 310 310 311 313 313 313 314 316 315 315 316 315 316 318 316 314 313 311 312 311 311 313 315 317 316 312 312 313 311 310 310 310 310 309 311 312 311 312 312 313 314 313 313 313 313 315 316 315 314 311 310 312 314 315 316 314 312 314 317 315 315 322 324 321 318 316 315 315 313 313 313 312 314 313 312 316 320 319 317 320 324 323 319 322
314 313 312 311 310 311 313 314 314 315 315 315 315 315 314 317 319 317 317 314 312 313 311 310 312 313 315 315 311 312 313 312 311 311 310 309 310 310 311 312 314 314 314 315 315 314 315 315 315 314 314 316 312 309 310 312 313 314 311 310 318 321 316 314 317 316 314 314 313 313 315 312 311 313 313 314 315 314 317 317 314 318 324 323 322 324 328
314 313 312 311 310 312 313 314 314 315 315 315 315 315 315 318 317 315 315 315 314 315 313 310 311 313 314 315 312 312 314 313 313 312 310 310 310 312 313 312 314 315 317 317 316 316 317 316 314 313 314 316 315 311 311 311 311 312 311 310 317 321 317 313 314 313 312 313 312 312 314 312 311 313 313 313 315 314 314 314 313 319 325 319 318 326 330
314 313 313 312 310 311 313 314 314 314 315 314 315 315 315 316 316 314 314 313 312 313 312 310 311 315 318 319 315 313 315 314 312 311 312 311 311 312 313 313 315 318 321 321 318 316 317 314 313 313 313 313 314 313 313 312 310 312 315 313 313 318 318 313 314 315 312 313 314 313 313 312 313 314 312 312 314 313 312 314 315 319 323 322 321 327 328
315 314 313 312 311 311 312 314 314 314 315 314 314 315 315 315 315 313 312 313 312 312 311 311 314 316 317 317 313 313 315 314 312 311 311 311 310 311 313 314 315 318 321 322 317 314 317 318 314 313 314 314 313 313 313 312 311 314 318 314 312 315 316 315 317 316 312 313 315 314 313 312 312 313 312 312 313 314 314 314 317 323 327 325 325 329 327
315 314 314 313 311 311 311 313 314 314 315 315 314 315 315 316 315 313 314 315 314 312 310 311 316 319 316 315 314 314 314 312 312 311 310 310 310 311 313 313 314 316 318 317 313 312 315 317 314 312 314 313 311 312 311 310 313 317 316 314 316 317 315 316 320 318 312 312 315 315 313 312 312 314 313 312 313 315 315 314 318 325 329 328 331 333 328
315 314 314 313 313 311 311 313 314 315 315 315 314 315 314 314 314 313 314 315 313 311 311 313 315 316 314 313 314 313 312 310 310 311 311 310 310 310 310 310 313 317 317 313 312 311 311 312 311 310 312 311 309 311 311 309 312 316 316 315 318 320 318 315 317 318 314 312 314 315 312 310 312 314 311 310 312 313 315 319 322 323 325 328 333 330 324
315 315 314 313 313 312 311 311 313 314 315 315 314 314 313 313 314 311 314 317 312 309 313 317 317 315 312 312 313 312 312 312 311 312 313 311 310 311 309 310 314 317 314 312 312 311 311 312 311 310 311 311 311 311 311 311 311 313 317 318 318 321 322 317 315 317 316 315 315 315 312 309 310 311 310 310 312 313 316 322 323 321 321 324 325 323 321
315 315 314 313 314 313 312 311 311 313 315 314 314 314 312 313 313 311 314 318 314 311 315 316 313 313 312 312 313 312 313 314 312 312 313 312 313 313 312 312 314 315 313 312 312 312 312 312 313 313 311 310 311 311 310 312 311 310 312 317 319 321 321 318 316 316 316 318 318 316 314 313 311 312 313 314 314 316 320 322 320 319 321 321 320 320 320
315 315 315 314 314 314 313 312 311 312 314 314 315 315 314 314 314 312 313 317 316 314 315 314 310 311 312 312 312 312 313 314 313 313 313 313 314 315 314 314 314 314 313 312 312 312 312 314 316 315 313 313 314 313 312 313 314 311 311 313 317 322 320 317 316 316 314 317 317 313 311 313 315 317 317 316 318 319 321 321 319 317 318 319 319 319 318
315 315 315 315 314 314 314 313 311 311 312 313 314 315 315 314 314 312 312 317 317 312 312 314 314 312 312 312 312 313 313 313 314 314 314 314 314 314 314 315 314 314 314 313 312 312 313 318 320 316 315 319 319 314 313 313 312 313 313 311 313 318 320 317 315 315 314 314 315 314 313 312 316 319 317 315 317 317 319 323 321 316 315 317 318 317 316
315 315 315 315 315 314 314 314 313 311 311 312 313 314 315 315 314 313 311 314 316 313 312 314 315 313 312 312 312 315 316 315 315 315 314 314 315 315 315 315 314 314 313 312 314 315 316 321 322 317 317 320 317 313 314 314 311 311 311 309 309 312 315 317 317 316 316 315 316 318 319 318 317 317 315 313 313 313 316 321 320 315 313 314 316 316 316
315 315 315 315 315 315 314 314 314 312 311 311 311 312 313 313 314 314 312 312 315 314 313 313 313 312 313 312 313 314 316 317 316 315 315 315 314 315 315 314 314 314 312 312 315 318 320 321 319 317 317 316 313 312 313 315 314 311 308 309 312 312 314 318 320 318 316 316 317 319 320 320 318 317 314 311 312 312 312 315 317 314 311 313 315 315 314
314 315 315 315 315 315 315 314 314 314 313 312 312 311 312 312 312 313 313 313 314 314 313 313 313 313 313 313 314 313 313 315 314 314 316 316 314 314 315 314 314 313 312 315 317 319 321 318 315 316 315 312 311 312 312 315 318 314 311 313 316 316 317 319 319 318 316 315 316 316 315 316 318 317 313 310 311 313 312 314 315 312 311 313 314 313 313
313 315 315 315 315 316 315 315 315 314 314 314 313 313 313 312 312 313 314 314 314 313 313 313 313 313 313 314 315 313 313 314 313 313 316 314 312 315 315 314 314 313 313 318 321 321 320 317 315 318 316 310 310 312 312 314 317 314 311 312 313 313 315 314 314 315 314 314 315 315 314 316 316 315 313 311 312 313 313 314 314 311 310 312 312 311 311
312 314 315 315 315 316 316 315 315 315 315 314 314 314 314 314 314 313 313 314 313 313 314 314 313 314 313 313 313 313 313 314 314 316 318 316 313 314 314 313 313 313 313 317 320 318 317 316 314 315 316 313 312 313 312 312 314 313 310 311 311 311 311 310 310 312 313 312 312 312 314 315 314 312 311 311 313 315 315 313 311 310 311 311 310 310 310
311 313 314 315 315 315 316 316 315 315 315 315 315 315 315 315 315 315 315 314 314 313 313 314 314 314 314 313 313 313 313 313 314 315 317 317 315 315 317 317 315 313 314 317 317 314 314 317 314 313 317 318 314 312 312 313 313 314 313 315 315 313 311 310 309 310 312 311 309 312 315 315 312 310 310 312 316 317 313 309 309 310 310 309 309 309 309
310 311 313 314 315 315 316 316 315 315 315 315 315 315 315 315 316 316 316 315 316 315 314 314 314 314 314 314 313 313 313 313 314 313 314 315 315 316 320 319 315 314 315 316 317 314 313 316 315 313 315 316 312 311 313 316 315 311 309 312 314 312 313 313 311 310 312 313 313 315 315 313 310 309 310 312 314 312 309 308 309 310 309 309 309 308 308
311 311 312 314 315 315 316 316 315 315 315 315 315 315 315 315 315 315 315 315 316 316 315 315 315 314 314 314 314 315 315 314 314 313 313 314 314 315 317 316 313 314 314 313 316 316 314 315 316 314 314 314 313 312 311 314 316 312 307 309 313 312 312 313 314 312 312 314 316 313 310 310 310 309 309 309 309 308 308 309 309 308 308 308 307 307 307
311 311 311 313 314 315 316 316 316 315 315 315 315 314 314 314 314 314 315 315 316 316 316 315 315 315 315 315 314 315 315 315 315 314 314 315 315 314 315 314 313 314 313 313 315 316 315 314 314 314 315 314 314 314 311 310 315 316 312 311 311 309 307 308 312 312 310 310 311 308 307 310 311 309 309 308 308 308 309 308 307 307 307 306 306 306 306
311 311 311 311 313 314 316 317 316 316 316 315 315 315 314 315 314 314 314 315 316 317 316 315 314 315 316 316 316 315 315 315 315 315 316 316 316 315 315 314 314 314 314 314 314 313 313 313 311 311 314 313 312 315 315 312 312 313 313 313 311 308 306 308 312 312 311 312 311 307 306 309 309 308 309 308 308 309 308 307 307 306 306 306 306 306 306
312 311 311 311 312 313 315 316 317 317 317 317 317 316 315 315 314 313 314 316 317 317 317 317 315 315 316 316 317 316 316 316 316 316 317 317 316 316 316 315 315 314 314 315 314 313 314 314 312 313 315 313 312 314 315 314 312 310 312 315 314 309 308 310 313 312 311 313 312 307 306 308 308 308 308 308 308 309 307 307 307 306 306 306 306 306 306
312 311 311 311 311 312 313 315 316 316 317 317 316 316 315 315 314 313 314 315 316 316 316 317 317 315 315 315 315 315 315 315 316 315 316 316 316 316 316 316 315 315 314 314 314 314 313 312 313 316 316 313 311 313 313 313 311 309 311 313 311 309 310 311 311 311 310 311 310 307 308 309 308 308 309 308 308 308 307 306 306 306 306 306 306 306 306
312 312 312 311 311 311 312 313 314 315 315 315 315 315 314 314 313 312 314 315 317 318 317 316 316 315 314 314 314 315 315 315 315 315 315 315 315 315 316 316 316 316 314 314 314 313 313 313 313 315 314 312 311 311 312 312 311 312 314 311 307 309 312 309 309 312 313 311 310 309 311 313 311 309 309 309 308 307 306 306 306 306 306 306 306 306 306
312 312 312 312 312 311 311 311 312 312 313 313 313 312 312 312 312 313 315 316 317 318 317 315 315 315 314 314 314 315 315 315 316 316 316 315 315 315 315 316 316 316 315 315 314 313 313 315 314 313 312 312 312 312 311 311 312 314 315 311 308 310 312 309 310 314 314 311 309 309 310 311 311 309 309 309 308 307 307 307 307 306 306 306 306 306 306
312 312 312 312 312 312 312 312 312 312 312 312 312 312 312 312 313 315 317 318 317 316 316 315 315 315 315 315 315 315 316 316 316 315 316 316 316 316 315 316 317 316 315 314 315 314 314 314 314 313 313 314 314 314 313 314 314 315 313 311 310 310 310 310 311 311 311 310 311 310 309 310 310 310 309 309 308 308 307 307 307 307 306 306 306 306 306
312 312 312 312 312 313 313 313 313 313 313 313 313 312 311 313 316 318 318 317 317 316 315 315 314 315 315 316 316 316 317 317 317 316 316 316 317 316 316 316 316 315 315 315 315 315 315 314 314 314 314 314 314 315 315 315 316 316 313 312 312 312 311 311 311 311 311 312 311 310 310 310 310 309 309 309 308 308 308 307 307 307 307 306 306 306 306
313 312 312 311 312 312 312 312 313 313 313 313 313 312 312 313 316 317 317 317 317 316 315 315 315 315 316 316 316 317 317 318 318 317 317 317 317 317 317 316 315 314 315 315 314 314 315 315 314 314 314 313 314 315 314 313 315 316 314 313 313 313 312 313 312 312 312 312 311 310 310 310 310 309 309 309 309 308 308 307 307 307 306 306 306 306 306
313 312 312 311 311 311 311 311 311 312 312 313 313 313 312 313 314 314 314 316 316 316 316 316 317 316 316 316 316 316 317 318 318 318 318 317 317 317 316 316 314 314 314 314 313 313 314 315 315 315 314 313 314 315 315 313 313 314 313 313 313 313 313 313 313 313 313 312 310 309 309 310 310 310 309 309 308 308 307 307 307 306 306 306 306 306 306
313 312 311 311 310 310 310 310 310 312 315 316 317 316 316 316 316 314 314 316 317 316 316 316 317 317 316 316 316 316 317 317 317 318 318 318 317 317 316 315 314 314 315 314 314 314 315 315 315 315 315 314 314 315 316 314 313 313 313 313 313 313 313 313 313 313 313 313 311 310 310 311 311 310 309 309 308 308 307 307 307 306 306 306 306 306 305
312 311 311 310 310 310 310 310 312 316 318 319 320 318 318 318 318 316 315 316 317 317 317 317 317 317 316 316 317 317 316 316 317 317 317 318 318 317 317 316 315 315 315 315 314 314 315 315 315 315 315 315 314 314 315 314 313 313 313 314 314 314 313 313 313 313 313 313 312 312 312 311 310 309 309 308 308 308 307 307 307 306 306 305 305 305 305
311 311 311 311 311 310 310 313 317 320 320 319 319 318 318 319 319 318 317 317 317 318 318 317 317 317 316 316 317 317 316 316 317 317 317 318 318 317 316 316 316 316 316 315 314 314 315 315 315 315 315 315 315 315 314 313 313 313 313 314 314 313 313 312 312 313 313 313 313 313 312 310 310 309 309 308 308 308 307 307 306 306 306 305 305 305 305
311 311 312 312 311 311 314 318 320 321 320 319 318 318 318 319 319 317 317 317 317 317 317 317 317 317 317 317 318 317 316 317 317 317 317 317 317 317 316 316 315 315 315 315 314 315 315 315 314 314 315 315 316 315 314 314 314 314 314 314 314 313 313 313 313 313 313 313 313 312 311 310 309 309 308 308 308 307 307 307 306 306 305 305 305 305 305
311 311 312 311 311 314 319 321 320 320 319 318 318 318 318 318 317 317 317 317 317 317 317 317 317 317 317 317 317 316 316 317 317 317 317 317 316 316 316 315 315 316 316 316 315 315 315 314 314 315 315 316 315 315 314 314 314 314 314 314 314 314 314 314 313 313 312 311 311 311 310 309 309 309 308 308 307 307 307 306 306 306 306 306 305 305 305
312 312 312 312 314 318 322 321 319 319 319 318 317 318 318 317 317 317 316 316 316 316 316 316 317 316 316 316 316 316 316 317 317 318 318 316 315 315 315 315 316 316 316 316 314 314 314 315 314 315 316 315 314 314 313 313 314 314 314 313 314 314 314 314 313 312 311 310 309 310 310 309 309 308 308 307 307 307 306 306 306 306 306 305 305 305 305
312 312 313 314 316 319 320 320 319 319 319 317 317 318 318 317 317 317 317 316 316 317 316 316 316 316 316 316 316 316 316 316 317 318 317 316 316 316 316 315 315 314 315 316 315 313 315 315 313 314 315 313 311 312 313 313 313 314 314 313 313 313 313 313 313 312 311 311 310 310 310 309 309 308 308 307 307 306 306 306 306 306 306 305 305 305 305
312 312 313 315 316 317 318 318 319 319 318 317 318 318 317 317 318 318 317 317 317 316 317 316 316 316 316 316 316 316 316 316 317 317 317 316 315 315 315 315 315 314 315 316 314 313 315 315 314 314 316 313 310 310 312 312 313 313 314 313 313 313 313 313 313 312 311 311 310 310 310 309 308 308 307 307 307 307 306 306 306 306 305 305 305 305 305
313 313 314 315 315 315 316 317 318 318 318 318 318 318 318 318 318 317 317 318 318 317 316 317 317 316 316 316 316 316 317 317 317 316 316 316 315 314 315 316 314 314 316 316 313 313 315 314 312 313 314 312 310 310 311 311 312 313 313 313 313 313 313 313 312 311 310 310 310 310 309 309 308 308 307 307 307 306 306 306 306 305 305 304 305 305 304
313 313 313 313 314 316 316 316 317 317 318 318 318 317 316 316 317 318 318 319 319 318 318 318 317 317 317 317 317 317 317 317 316 315 315 315 314 315 316 315 313 314 316 314 312 314 315 313 311 312 311 310 310 310 310 310 311 312 312 312 313 312 313 313 311 311 310 310 310 309 309 308 308 307 307 307 307 306 306 306 305 305 304 304 305 305 304
313 313 313 315 317 318 318 318 317 317 318 318 319 319 318 317 318 319 320 319 318 318 318 318 318 318 318 318 317 317 317 317 316 315 315 315 314 314 314 314 314 314 314 313 313 314 314 313 313 314 311 309 309 308 307 308 310 311 311 311 311 311 311 312 311 311 311 310 310 309 308 308 307 307 307 307 306 306 306 305 305 304 304 305 305 305 304
313 313 314 317 318 319 320 319 318 318 319 319 319 320 321 321 320 321 321 320 319 318 318 318 318 318 319 318 318 318 318 317 316 315 314 314 314 314 315 315 314 313 313 314 314 312 311 311 312 311 309 308 308 307 306 307 308 310 311 311 311 310 311 311 311 311 310 310 309 308 308 308 307 307 306 306 306 306 306 305 304 304 305 305 305 304 304
312 313 316 319 319 318 319 318 317 318 321 320 319 320 322 323 321 320 320 318 318 318 318 318 318 318 318 318 318 318 317 316 316 315 313 312 313 314 314 314 314 312 312 313 313 312 311 312 311 309 308 308 307 306 305 305 306 308 310 311 311 311 311 311 311 311 310 309 309 308 308 307 307 306 306 306 306 306 305 304 304 304 305 305 305 304 304
313 315 317 320 319 317 316 317 319 320 319 318 318 320 322 321 320 319 317 317 317 318 318 318 318 318 318 318 318 318 317 316 315 314 312 312 316 316 313 312 313 313 313 313 313 314 314 312 309 307 308 308 306 305 304 304 304 305 308 309 310 311 311 311 310 310 310 309 309 308 308 307 306 306 306 306 306 305 304 304 304 304 304 305 305 304 303
313 314 316 320 321 317 316 317 319 319 317 316 317 319 319 319 318 318 318 318 318 319 319 319 319 319 318 318 318 317 316 315 315 315 314 314 316 315 313 312 313 313 314 315 315 314 312 309 308 307 307 307 306 305 304 303 302 302 305 307 309 310 311 310 310 310 310 310 308 308 308 307 306 306 306 306 305 304 304 304 304 304 304 304 305 304 303
313 315 318 322 321 317 316 318 318 316 316 318 319 319 319 318 318 318 319 319 319 320 319 319 318 318 318 317 316 315 314 314 315 315 314 313 314 314 314 315 315 313 313 313 313 311 309 307 307 307 306 306 305 304 303 303 302 302 304 306 308 309 310 311 310 309 309 309 308 308 307 306 305 305 305 305 304 304 304 304 304 304 304 305 304 303 302
314 316 319 320 318 315 316 318 318 317 317 318 318 318 318 318 318 319 319 319 319 320 319 318 319 320 317 315 314 314 313 313 314 314 314 315 315 314 314 315 315 313 311 310 309 309 308 306 306 305 304 304 303 303 303 303 303 303 304 306 308 309 310 311 310 308 308 308 308 307 307 305 305 305 305 304 304 304 304 304 304 304 304 305 304 303 302
315 316 317 317 317 316 315 316 318 318 317 317 317 318 318 318 318 319 319 319 319 319 318 317 318 317 314 313 314 315 314 313 314 315 316 316 314 312 311 312 312 311 310 308 307 307 306 304 304 303 303 302 302 302 303 303 304 304 304 306 308 309 310 311 310 308 308 307 307 306 305 305 304 305 304 304 304 304 304 304 304 304 305 304 303 302 301
315 316 315 315 316 315 314 315 317 317 316 316 317 318 318 318 318 319 318 319 319 319 317 316 316 316 316 316 316 314 312 311 313 314 313 312 310 310 311 311 310 309 308 307 305 304 303 302 302 302 302 302 302 303 303 303 303 304 305 306 308 309 310 311 309 308 308 307 306 305 305 304 304 304 304 304 303 303 304 304 304 305 304 304 302 302 301
315 315 315 315 315 315 315 315 316 317 317 318 318 318 318 319 319 319 319 319 320 319 317 315 315 317 318 317 315 313 312 313 313 312 311 310 309 309 310 309 307 306 305 304 303 302 301 301 301 302 302 302 302 302 303 303 303 303 305 306 308 309 310 310 309 308 307 307 305 304 304 304 304 304 304 303 303 303 303 304 305 305 304 303 302 301 301
Wind_Speed
27 27 26 26 25 24 22 18 13 11 9 9 11 14 17 16 10 8 8 6 7 11 8 4 4 4 2 3 7 8 6 6 8 11 12 8 6 8 6 3 4 4 3 3 3 3 4 4 3 2 2 3 3 8 14 11 5 3 2 2 3 2 3 3 2 3 3 3 2 5 6 4 4 5 5 4 3 1 2 4 3 2 3 2 3 3 2
26 27 26 26 25 23 22 18 13 11 9 8 8 10 13 15 16 15 9 2 5 6 4 1 4 3 3 4 6 8 7 8 9 7 7 7 3 3 4 4 5 3 3 4 3 2 3 3 3 2 1 2 8 14 17 13 7 5 2 2 2 2 2 3 3 2 4 4 4 4 5 5 3 3 6 6 6 5 2 1 2 3 1 1 3 4 2
26 26 26 25 25 23 21 18 13 10 8 7 6 5 6 8 10 16 17 10 7 8 5 4 5 2 4 5 4 5 5 8 10 7 6 9 7 3 3 4 5 4 3 5 5 4 5 2 1 3 2 2 7 14 17 14 10 10 8 4 3 3 1 2 4 3 2 2 1 2 3 4 2 3 7 7 8 8 3 2 4 3 0 2 4 3 1
25 25 25 25 25 23 21 18 14 10 7 8 8 5 4 4 3 7 13 17 18 14 8 6 5 2 3 4 4 4 2 5 11 10 7 10 10 7 5 3 4 6 6 6 6 7 6 4 2 2 2 2 3 9 15 16 13 13 14 11 5 4 2 2 5 5 4 4 3 3 2 2 3 4 7 7 6 6 3 3 3 1 1 3 3 1 1
24 25 25 24 24 23 20 18 14 9 7 7 8 8 7 5 2 2 4 9 12 13 11 9 5 2 3 2 2 4 3 3 8 9 6 7 8 7 6 5 3 4 4 5 4 5 5 5 4 2 2 2 3 6 12 15 14 12 13 11 5 4 3 3 4 4 1 3 1 4 2 2 2 4 5 6 7 6 5 4 2 3 4 3 2 2 3
22 24 24 24 24 22 20 18 15 10 9 7 6 8 8 5 2 2 3 2 2 5 8 8 7 5 4 3 1 4 4 2 3 5 5 7 7 5 5 7 5 3 4 4 2 3 4 5 3 1 2 2 4 5 7 11 13 11 10 9 5 5 2 1 2 4 3 2 3 4 3 2 2 3 4 6 7 5 5 2 1 4 4 2 1 3 6
21 22 23 23 23 22 19 18 16 12 10 8 8 10 10 7 5 4 6 4 2 3 3 6 9 7 4 4 3 2 4 4 1 1 3 6 7 5 4 4 6 4 4 5 4 2 2 2 2 1 2 2 2 3 3 7 11 9 6 6 4 4 1 0 2 3 4 4 4 3 4 4 4 4 4 5 6 4 2 2 2 2 4 4 5 8 7
19 21 22 21 21 21 19 17 16 14 10 7 9 12 9 8 6 5 7 8 6 6 5 5 6 5 4 3 2 2 3 4 3 2 3 2 4 5 5 2 4 5 5 6 4 3 6 5 2 3 2 1 0 1 0 2 7 7 3 3 4 3 1 0 3 4 2 4 4 4 3 2 2 4 5 5 5 3 2 2 3 2 1 2 6 7 5
17 19 20 21 20 20 19 16 14 15 11 8 11 15 11 9 8 5 6 5 6 5 4 4 4 3 3 2 1 2 3 3 2 2 4 4 1 1 5 4 3 5 6 6 3 3 7 6 5 6 4 1 1 1 1 3 1 4 2 2 3 3 2 1 4 4 2 3 4 6 4 2 2 5 7 8 6 3 2 3 3 2 1 2 3 4 2
16 17 18 19 19 18 18 16 14 14 12 11 13 13 10 9 8 6 5 3 5 4 3 4 3 1 2 1 1 2 3 4 3 2 5 9 6 4 7 6 4 4 5 4 2 2 2 1 2 4 3 2 4 4 4 4 3 1 1 2 2 2 3 1 3 3 2 4 5 4 3 4 1 3 4 5 4 3 3 3 4 2 1 1 2 2 0
14 15 16 18 18 18 17 16 14 12 11 12 12 10 8 8 7 5 5 3 4 5 3 3 3 1 1 3 3 3 5 8 6 4 2 7 8 6 5 6 5 3 1 1 3 3 2 3 4 6 7 10 12 12 12 11 8 3 3 2 1 2 3 2 2 3 2 6 4 2 4 2 3 3 2 3 4 4 3 2 3 3 2 3 3 2 2
11 14 14 15 16 17 16 16 14 12 11 12 10 8 7 7 5 4 5 3 2 4 3 2 1 1 2 5 5 5 6 7 6 4 3 4 8 10 8 7 5 1 1 2 4 2 3 6 8 9 12 15 16 18 17 12 11 9 6 4 2 2 3 1 1 2 1 3 3 4 1 3 4 4 4 3 2 1 3 4 3 4 4 4 4 3 4
9 11 12 13 15 15 15 14 13 12 11 10 9 8 7 7 7 6 6 5 1 2 2 1 1 4 7 8 7 6 7 7 7 7 6 5 7 9 9 6 3 2 2 1 2 2 4 4 4 4 6 7 10 13 12 8 8 10 10 6 4 4 2 1 1 1 1 2 3 2 2 4 4 5 5 3 3 3 4 3 2 3 3 3 2 3 6
7 9 10 11 13 13 14 13 12 11 10 9 9 9 8 6 5 5 5 5 1 1 1 1 1 3 6 6 5 4 6 7 6 5 5 5 5 6 6 4 3 4 3 2 2 4 3 2 3 2 3 5 4 4 4 4 5 7 8 6 5 5 3 1 1 1 2 2 1 1 2 4 4 3 3 2 2 1 2 2 2 2 5 4 2 3 7
6 7 9 9 10 11 12 13 12 11 10 10 8 7 6 6 6 6 5 5 3 1 0 1 1 1 4 4 4 3 3 3 3 2 2 2 4 4 4 4 3 3 3 1 2 4 2 2 3 2 1 2 1 1 2 2 3 4 6 6 6 5 2 3 3 1 2 4 1 2 3 2 4 4 3 1 1 2 2 2 1 2 6 7 4 4 7
5 5 7 8 9 9 10 11 11 10 10 10 8 6 6 6 6 5 4 5 4 1 2 2 1 2 4 4 3 3 2 1 1 1 2 2 1 1 2 4 3 2 1 2 3 3 3 3 3 2 2 2 2 1 1 1 2 3 5 6 7 6 3 3 4 1 2 4 2 1 2 3 5 6 5 3 3 3 1 2 0 1 5 7 6 6 8
5 4 5 6 7 7 8 9 9 9 9 9 8 7 7 7 6 4 1 2 2 1 4 4 2 2 3 3 1 2 2 2 2 2 1 2 2 1 2 3 3 2 2 2 3 4 3 2 2 2 1 2 3 1 1 1 1 2 3 5 6 5 4 3 3 1 2 3 2 2 3 5 5 5 5 3 1 3 2 1 1 1 5 8 8 8 9
5 4 4 5 6 6 7 7 7 8 8 8 8 8 8 8 7 5 1 1 1 1 5 6 5 5 3 2 2 4 3 2 2 2 0 2 2 1 2 2 2 2 3 2 2 3 3 2 2 2 1 2 1 1 1 1 1 2 0 3 3 3 3 2 2 1 2 3 2 2 3 4 5 5 3 2 3 3 1 2 1 0 2 5 7 8 10
5 5 4 4 5 5 5 5 6 7 7 7 7 7 7 7 7 6 4 1 0 2 6 8 8 8 7 5 5 5 4 3 2 2 1 2 1 2 2 2 1 1 3 3 3 2 2 1 1 3 2 2 1 2 2 2 2 2 2 2 1 1 1 2 2 1 2 2 1 2 4 5 8 8 3 2 3 3 3 2 2 1 2 3 6 8 9
6 5 5 4 4 4 5 5 5 5 6 6 6 6 7 7 7 7 6 4 4 5 6 8 11 11 10 9 8 7 7 5 4 4 3 2 3 3 2 2 1 1 2 2 1 1 2 1 2 1 2 3 2 2 1 2 3 3 4 3 3 3 2 1 2 3 3 1 1 1 3 5 10 9 2 2 5 3 2 1 1 1 2 5 7 8 9
6 6 5 5 4 4 4 4 4 5 5 5 6 7 7 8 9 8 8 8 7 7 5 6 10 11 12 12 11 10 10 9 7 6 5 5 4 4 1 1 4 3 1 2 2 1 1 2 2 1 1 1 1 2 2 1 4 3 3 2 2 3 4 3 3 3 3 3 4 4 4 8 16 12 4 6 8 6 7 5 3 3 5 6 7 9 11
6 6 6 6 5 4 4 3 3 4 5 6 7 7 8 9 10 10 11 11 9 7 6 7 10 12 14 16 15 13 13 12 11 9 7 6 6 7 6 4 6 5 5 5 3 1 2 2 2 2 1 1 1 2 3 2 2 3 1 2 3 5 5 4 3 4 4 4 7 6 4 12 20 15 8 7 9 10 10 8 7 7 7 8 9 12 14
6 6 6 6 6 6 5 4 4 3 4 5 6 7 9 10 11 12 13 12 10 10 10 9 9 9 10 14 17 18 16 15 15 14 12 10 8 9 11 10 8 6 7 8 5 2 4 4 2 2 2 2 3 2 1 2 3 3 2 3 4 5 5 4 2 2 3 6 10 9 8 13 19 17 13 13 12 11 9 9 9 8 8 10 11 13 14
6 6 7 7 7 7 6 6 5 5 5 5 6 7 9 10 11 13 13 11 11 10 8 6 5 4 5 7 11 14 15 15 16 14 13 13 11 9 11 14 12 9 10 13 11 6 5 3 2 2 2 3 5 3 2 4 3 2 3 2 4 4 8 5 1 1 1 4 7 8 11 15 17 16 16 16 12 11 10 10 10 9 10 11 12 12 13
7 7 7 7 7 7 7 7 7 7 7 7 8 8 9 10 11 13 11 10 9 6 4 5 5 3 5 6 7 10 12 13 15 15 15 17 16 14 13 13 13 12 12 13 14 10 5 3 2 2 2 5 7 3 2 4 4 3 5 3 3 3 8 6 2 3 4 4 7 7 7 10 12 13 15 16 13 12 11 10 9 10 11 11 11 12 12
7 7 8 7 7 7 6 7 8 9 9 10 10 9 10 10 11 12 11 9 7 4 2 3 4 4 8 11 10 11 12 13 15 17 18 19 19 18 18 16 13 13 13 12 14 15 8 3 3 2 2 6 8 5 2 3 3 3 4 6 4 7 7 4 3 3 3 7 11 10 8 10 14 16 16 15 14 12 9 8 9 10 10 10 11 12 13
7 8 8 7 7 6 6 6 7 8 9 10 10 10 11 10 11 12 9 6 5 3 0 4 10 13 13 9 6 6 6 8 10 14 17 20 21 20 20 20 19 18 15 13 12 13 8 3 3 3 3 5 6 5 3 3 3 3 3 5 7 8 4 3 3 1 3 6 10 9 5 6 11 11 9 8 8 8 8 9 9 10 10 11 12 13 14
7 8 8 8 7 6 6 6 6 7 8 9 10 10 11 10 10 10 8 5 4 3 4 10 18 16 8 0 3 2 1 3 5 7 10 15 20 22 22 23 23 21 20 16 11 8 6 4 5 5 4 5 4 3 1 1 2 2 4 8 13 13 9 8 7 6 8 14 17 14 10 9 11 8 6 6 7 8 9 9 9 10 12 13 13 15 16
7 8 8 8 7 6 6 6 6 7 8 9 9 10 10 9 7 6 5 4 3 4 8 13 13 9 5 2 1 3 3 3 5 7 6 8 15 20 23 24 24 25 24 18 12 8 6 6 7 6 5 6 5 1 1 2 3 5 6 11 18 22 21 20 19 15 15 22 24 17 14 14 13 9 7 7 7 9 10 9 11 13 14 14 15 17 18
8 8 8 8 7 6 6 5 6 7 8 9 9 9 7 6 4 3 3 2 2 4 7 7 5 8 10 7 5 6 5 4 5 8 8 7 10 15 19 21 23 23 21 16 11 6 3 4 7 8 9 11 7 2 1 3 2 5 8 13 19 23 25 27 28 23 22 26 25 18 16 16 12 9 9 9 9 10 10 10 12 14 14 16 17 18 19
7 7 8 7 7 6 6 6 6 7 8 9 9 7 4 3 3 3 3 2 2 4 6 4 7 12 11 7 7 9 8 7 6 5 5 5 6 8 12 16 18 18 16 12 7 4 4 6 7 5 8 13 10 2 2 3 2 5 11 16 20 23 23 26 27 25 26 28 24 17 14 13 11 12 12 9 8 8 10 12 13 13 14 16 17 19 21
7 7 7 7 7 7 6 6 7 8 8 9 8 5 4 4 5 5 4 3 2 3 4 4 6 6 6 8 11 11 8 7 6 5 5 5 3 3 6 10 13 14 14 11 7 4 7 11 10 5 7 13 10 2 2 4 6 10 12 13 18 22 22 22 22 22 24 27 24 16 13 15 17 15 12 8 7 8 10 12 12 13 14 16 17 18 19
6 6 6 6 6 6 6 7 8 8 6 4 2 0 1 3 5 6 5 4 3 2 2 3 2 1 4 10 12 9 7 6 4 3 6 5 3 2 4 6 8 10 12 10 8 6 7 9 8 6 8 12 9 3 2 6 12 18 18 16 19 21 19 19 20 20 21 24 22 17 16 18 17 12 8 8 8 9 10 11 12 14 15 16 17 18 19
5 5 5 6 6 5 6 7 6 3 2 3 3 2 3 3 3 4 4 5 3 2 2 3 2 2 5 8 7 5 7 7 4 4 5 3 2 3 3 3 4 6 8 8 7 5 5 5 5 3 5 8 7 4 3 7 17 26 26 22 21 20 18 19 20 20 20 21 20 18 18 18 15 10 8 9 9 10 11 12 13 14 15 16 18 19 20
4 4 5 5 5 5 5 4 1 2 4 4 3 3 4 2 1 3 5 6 3 1 2 3 2 2 3 4 2 3 8 9 6 5 4 2 3 3 2 3 2 3 5 6 5 3 3 4 4 3 3 4 4 4 5 8 16 23 23 19 18 17 16 17 20 20 20 20 20 19 18 16 15 12 10 9 10 10 11 11 12 14 15 18 19 20 21
4 5 5 5 5 5 3 1 2 2 4 5 5 5 4 2 1 3 6 9 7 3 2 2 2 2 1 2 3 6 10 10 7 6 5 3 2 2 2 2 1 2 4 4 3 2 2 4 4 2 2 3 3 6 10 12 16 20 21 20 20 19 17 18 20 20 19 17 18 18 16 15 14 12 10 10 10 9 10 12 12 13 16 18 20 20 21
5 5 5 5 5 3 2 4 2 1 3 5 5 4 3 1 1 3 7 11 10 8 6 4 3 4 4 3 4 6 7 6 5 5 4 2 1 1 2 1 0 2 3 2 2 2 3 4 3 2 2 4 9 15 18 20 23 26 27 26 24 23 21 20 19 18 15 11 11 14 15 14 13 11 10 9 8 8 10 12 12 13 16 18 19 20 21
5 5 5 5 3 2 4 3 1 1 3 5 4 2 1 1 2 4 6 8 7 7 7 5 5 7 6 4 5 7 5 3 3 3 1 1 2 1 1 1 1 1 1 1 2 2 1 2 2 1 3 8 14 17 20 23 25 26 25 23 22 21 19 17 15 14 13 10 11 14 15 14 13 11 9 7 7 9 11 12 12 13 15 17 18 19 20
5 5 5 4 2 2 3 3 2 2 4 4 2 1 1 2 1 2 4 4 4 4 5 6 7 9 9 7 7 10 8 4 2 1 1 1 1 1 1 0 0 0 1 2 2 2 1 1 1 1 2 5 9 16 23 27 27 24 18 14 13 13 14 13 11 10 11 10 9 9 10 9 10 9 7 6 8 10 11 12 12 13 15 16 17 18 20
6 5 4 3 3 3 3 3 3 4 4 2 1 2 2 3 3 2 2 2 2 4 6 6 7 10 12 11 8 8 6 5 4 3 2 2 2 1 1 0 1 1 1 2 3 3 2 1 0 0 2 4 12 22 28 29 28 24 16 10 9 8 9 9 7 7 9 9 7 5 5 5 5 5 5 7 10 11 10 10 11 13 15 16 16 18 21
5 4 3 3 3 4 5 4 4 4 3 1 2 1 1 2 3 3 2 1 2 4 6 6 4 5 9 11 10 7 5 6 6 4 2 2 3 2 1 1 1 1 1 3 3 3 1 0 1 2 2 8 18 25 28 28 28 26 19 13 10 8 6 5 4 6 9 9 7 6 6 5 5 5 6 9 10 10 9 10 11 13 14 15 16 18 22
4 4 4 4 4 4 4 4 3 3 2 1 0 1 1 1 2 2 3 3 2 2 4 6 5 4 5 7 8 7 5 5 4 3 1 1 2 2 1 0 1 1 2 2 1 2 1 1 1 3 5 14 21 25 26 27 26 24 20 15 10 8 6 5 6 8 9 9 8 7 6 5 4 5 7 9 9 8 8 10 11 12 13 15 16 19 22
3 3 3 3 2 1 1 2 2 2 1 1 0 1 1 1 1 1 2 3 3 3 4 5 5 6 6 6 6 6 5 5 5 4 2 2 2 1 0 0 1 1 2 1 1 1 1 2 3 3 9 17 22 24 27 27 24 21 19 15 11 8 6 6 9 10 10 10 9 8 6 5 5 5 7 8 7 7 8 9 10 11 13 14 16 20 22
3 3 2 1 1 2 1 1 2 2 0 1 1 2 1 2 2 1 1 1 2 3 4 5 5 5 5 4 4 4 4 4 4 3 2 2 1 1 0 2 2 1 0 0 1 1 1 2 3 4 12 20 23 25 27 27 25 22 20 16 11 9 9 9 11 13 13 11 10 9 7 6 5 6 7 7 7 7 8 8 9 11 12 14 16 19 20
3 2 1 0 0 1 1 0 1 1 2 2 2 3 2 2 3 2 3 4 5 6 9 10 9 7 7 6 4 3 4 2 2 2 2 1 1 1 2 2 1 0 1 0 1 1 2 2 2 8 16 22 25 27 28 28 26 23 21 17 13 12 13 14 14 15 15 13 11 10 8 7 6 6 7 7 6 6 7 8 9 11 12 14 17 19 20
2 1 1 1 1 2 2 1 0 1 3 3 4 4 5 5 4 4 7 10 10 10 12 13 11 9 8 5 2 3 3 2 1 1 1 2 1 2 2 1 0 1 1 1 2 2 2 3 4 12 19 22 25 27 29 29 28 25 22 20 17 16 17 17 17 18 17 15 13 11 9 7 6 6 7 6 4 4 5 8 10 11 12 14 17 18 19
2 1 1 0 1 1 2 2 3 4 3 3 5 6 5 4 6 9 10 10 10 10 11 11 9 7 6 4 2 3 3 2 1 1 1 2 1 2 0 1 1 1 1 2 3 3 3 5 11 18 22 23 26 28 30 30 29 27 24 21 19 18 18 17 18 20 19 16 15 13 10 7 6 6 6 3 1 3 5 7 9 11 12 14 15 17 18
2 2 1 1 1 2 2 2 3 5 6 5 5 5 3 6 12 14 11 9 9 9 9 8 6 3 2 2 2 2 1 1 1 1 1 1 0 1 2 2 2 2 2 2 3 3 5 11 18 22 24 25 27 28 28 28 29 27 24 21 20 19 18 18 19 20 19 17 16 14 10 7 5 5 4 2 2 2 5 7 9 11 12 13 14 17 18
3 3 3 2 2 4 5 4 5 6 6 5 5 5 6 10 15 15 11 7 6 6 6 6 4 2 1 1 0 0 1 1 1 0 1 1 1 1 1 1 2 2 1 1 2 6 13 20 23 25 26 26 28 29 28 27 28 26 23 21 20 18 17 18 17 18 18 17 15 13 9 6 5 5 3 2 2 2 4 6 9 11 12 12 14 16 16
5 5 5 4 3 4 5 4 3 4 4 5 9 11 10 11 13 11 9 6 5 5 5 3 2 1 1 1 2 1 1 1 1 1 1 0 0 1 1 2 2 2 2 5 9 15 22 26 27 28 28 28 28 29 28 27 27 25 21 19 17 16 15 15 15 16 17 16 14 11 8 6 6 6 4 2 1 1 3 6 8 10 10 11 13 15 14
5 5 6 7 7 7 5 4 4 5 7 10 13 13 11 9 9 8 7 7 6 5 3 1 1 1 2 1 1 1 1 0 1 2 1 1 1 1 2 3 3 4 9 15 21 24 27 28 28 29 29 29 28 26 25 25 25 24 20 17 15 14 14 14 14 15 16 15 13 10 8 8 8 7 4 2 0 1 3 5 7 8 9 10 12 13 13
5 4 5 7 11 12 12 11 10 10 12 14 13 10 8 8 7 7 7 9 7 3 1 1 2 3 2 1 1 1 1 1 1 1 1 1 1 1 2 6 9 13 18 24 27 29 30 30 29 29 29 28 25 23 23 24 25 24 20 16 13 13 13 12 12 14 15 14 12 11 11 11 9 6 4 2 1 2 3 4 5 6 7 8 11 13 13
Wind_Direction
2 0 359 360 2 3 3 7 13 22 42 55 59 62 56 52 43 29 73 96 34 53 65 353 18 60 51 66 48 39 39 15 7 14 21 27 34 39 39 35 49 47 47 65 66 76 61 26 44 83 49 46 17 357 9 15 16 51 67 310 344 43 64 46 11 329 310 278 318 24 17 23 48 26 10 6 348 338 156 165 151 64 23 18 68 92 115
2 1 359 1 4 5 4 5 11 21 36 49 61 73 67 57 47 43 51 313 329 60 100 42 57 43 28 55 37 37 47 29 21 21 17 17 26 52 29 22 52 45 31 62 65 77 79 48 31 57 99 33 15 19 26 29 31 38 23 311 2 32 43 65 71 20 353 332 325 351 4 18 36 351 345 357 354 360 50 90 63 69 55 128 112 116 125
3 1 0 2 6 9 9 8 12 23 34 37 44 73 81 65 50 42 46 60 83 90 110 112 100 70 45 54 22 23 35 27 29 30 33 35 42 73 37 26 53 44 41 62 40 41 82 95 18 39 46 355 12 25 31 32 34 35 34 48 76 75 68 96 111 131 171 191 250 300 332 345 4 343 338 348 359 7 27 78 56 68 166 70 95 133 230
3 2 2 4 7 13 15 15 17 27 41 43 46 64 78 70 53 28 43 64 76 76 82 90 89 103 82 58 21 27 12 1 24 35 43 36 42 64 45 15 51 38 44 67 36 25 49 67 82 59 8 319 350 23 35 37 33 32 36 44 67 90 61 74 118 132 158 171 210 268 323 360 353 339 338 340 345 0 39 87 73 85 123 73 85 195 335
4 3 3 5 9 15 19 21 23 30 43 48 56 68 72 68 56 341 19 48 56 56 52 53 63 106 107 92 360 17 1 333 20 36 41 28 39 62 37 18 55 47 55 84 47 14 27 39 57 48 347 297 316 16 39 39 32 33 35 34 59 99 50 37 91 90 122 154 233 314 1 57 344 322 323 321 325 358 45 72 104 108 94 88 247 249 64
5 4 4 6 10 17 22 26 27 33 42 44 62 73 70 75 77 59 66 44 15 45 39 39 59 68 66 85 53 18 26 31 30 24 21 23 33 59 40 20 36 70 98 113 90 22 26 22 15 353 355 346 340 8 30 29 27 33 32 29 66 109 65 346 85 44 16 49 31 12 35 25 297 275 276 294 315 355 34 18 170 121 118 154 183 90 74
7 6 5 7 12 17 23 31 34 43 51 50 72 84 78 85 90 65 75 88 85 92 69 50 60 53 34 53 51 36 45 40 5 328 14 14 12 48 79 10 4 29 71 99 102 83 90 51 332 271 54 26 7 17 5 3 14 24 30 26 54 105 93 261 107 66 24 16 18 27 25 350 311 294 287 289 301 322 360 304 275 142 159 168 124 95 73
8 8 7 8 13 17 23 32 38 47 51 47 76 87 82 87 92 76 85 83 57 57 65 58 61 40 23 51 34 29 55 29 344 8 60 47 349 29 90 78 23 40 54 78 100 151 156 149 192 188 122 21 340 72 222 298 0 12 26 5 18 79 118 189 86 78 338 336 352 347 347 340 326 343 351 352 341 336 1 349 333 1 41 109 110 103 75
9 9 8 9 14 18 22 29 36 44 48 59 79 83 83 96 101 93 96 69 16 24 45 52 70 38 19 58 24 5 23 2 330 15 43 63 41 71 133 132 63 46 47 58 86 182 165 155 170 165 137 108 173 136 214 199 347 8 22 352 4 69 90 8 68 82 279 296 317 314 332 56 58 17 8 359 355 349 346 11 24 18 351 24 75 103 86
10 10 9 10 14 19 23 29 34 39 48 63 75 77 80 94 96 88 97 64 3 17 30 28 65 65 343 49 57 29 20 14 50 82 28 31 53 127 153 135 81 50 46 40 355 246 205 202 198 182 165 119 127 114 103 119 118 132 106 39 9 97 107 74 78 103 242 279 286 299 15 60 40 357 1 333 320 318 325 14 42 25 333 41 77 125 234
9 11 9 10 15 19 22 30 37 41 50 57 64 73 78 86 89 77 86 82 2 8 27 35 65 77 345 45 60 61 51 36 47 93 31 20 46 83 116 112 96 81 76 351 320 304 328 48 89 137 128 107 102 94 87 74 55 64 140 101 17 62 94 119 107 103 236 276 294 355 57 75 250 288 338 290 279 312 340 41 39 2 15 75 77 56 355
8 11 10 10 15 18 20 27 34 41 52 53 53 65 71 67 68 61 78 100 6 9 48 56 44 67 63 71 72 57 52 45 46 82 99 50 57 63 61 72 86 74 304 340 331 299 129 90 86 96 92 89 85 75 70 58 37 43 75 105 120 67 66 112 112 90 228 285 12 55 89 233 253 298 319 292 274 20 88 102 71 18 26 58 58 28 356
3 10 10 10 14 18 20 25 31 38 50 54 50 57 57 51 59 70 85 100 62 350 78 64 46 95 89 80 78 71 73 81 78 81 88 73 64 63 50 46 47 348 311 315 356 90 125 79 47 56 48 52 63 58 51 39 25 33 44 64 109 123 105 117 103 84 52 15 44 92 241 275 303 321 319 325 15 38 70 86 49 18 28 34 30 2 356
354 7 9 8 12 17 19 23 30 37 46 51 50 51 48 44 57 73 86 98 105 300 94 60 12 86 86 76 79 78 72 78 83 83 81 75 78 72 50 29 9 346 313 270 26 69 103 62 32 35 356 4 30 34 20 24 29 24 18 28 76 113 130 100 66 110 110 77 10 278 335 330 324 328 334 22 32 22 93 109 292 354 38 26 357 354 4
342 357 4 6 9 14 17 21 28 35 43 48 48 49 46 44 54 64 85 111 113 30 172 187 239 128 110 93 87 77 46 47 70 72 65 88 103 84 40 18 8 348 319 259 72 62 84 84 67 56 359 11 50 297 320 358 9 16 25 37 60 75 119 139 117 124 108 94 42 354 11 317 258 245 256 307 311 256 142 123 271 3 31 24 23 16 7
330 343 356 0 5 12 16 20 25 32 40 44 44 44 43 41 44 53 88 117 107 68 214 190 184 155 132 109 97 105 108 116 100 32 347 3 71 92 42 16 4 356 357 60 76 69 69 87 112 139 188 192 177 242 324 2 343 349 21 43 54 51 47 103 103 67 92 105 106 152 185 238 240 225 236 284 292 249 160 80 297 355 9 16 38 34 13
323 327 340 349 358 7 13 18 23 29 35 41 43 41 42 41 35 33 80 125 90 168 193 190 205 194 142 114 139 160 152 152 127 99 358 309 295 294 29 12 9 46 61 46 45 59 71 90 118 123 224 213 152 144 266 100 85 301 340 21 37 39 25 52 81 107 144 132 148 205 217 249 243 212 224 269 244 153 108 2 278 305 357 17 32 21 6
320 313 316 334 346 355 6 14 18 23 30 35 37 36 35 32 30 30 46 166 106 203 212 216 229 229 212 184 177 170 166 161 123 116 227 281 274 281 7 9 21 37 46 63 62 69 89 118 139 135 211 245 142 139 218 159 160 226 183 49 36 18 12 58 101 151 174 158 189 256 260 250 219 194 199 199 135 125 161 218 187 357 1 24 19 359 347
319 310 298 309 329 344 357 5 8 14 22 24 25 27 25 18 17 22 24 43 198 252 242 236 235 234 229 213 185 173 181 191 161 125 71 337 239 164 40 23 61 26 33 73 88 92 103 165 207 135 138 245 217 159 184 191 197 190 135 109 137 124 59 99 123 128 151 161 181 284 289 250 202 184 179 138 136 169 213 188 98 14 327 350 344 334 331
316 311 293 289 306 329 343 354 3 4 9 16 16 15 15 9 5 7 9 4 326 298 273 245 235 233 230 223 207 195 198 204 199 177 167 206 199 145 65 353 231 59 38 69 99 127 135 195 241 137 148 210 196 148 195 259 252 190 161 170 194 174 147 162 190 161 139 125 142 145 297 241 178 156 130 168 175 199 257 33 87 223 289 319 313 308 314
312 312 298 284 284 303 322 337 357 358 3 15 13 8 9 6 359 355 355 352 333 314 289 246 239 238 237 235 227 218 218 220 223 220 215 216 195 153 115 214 188 172 135 128 147 212 181 177 198 184 178 192 178 170 179 276 305 270 174 158 199 191 169 175 218 192 141 135 187 208 238 194 171 161 175 207 213 260 299 306 281 260 284 298 294 296 303
306 311 303 285 275 281 295 310 332 347 357 6 6 5 3 359 357 351 346 344 332 310 290 275 266 255 245 239 234 231 233 236 240 240 239 234 215 213 234 221 185 195 197 159 141 187 187 168 169 174 166 153 199 212 168 147 287 286 193 151 206 215 193 166 185 199 175 188 216 230 213 176 176 185 213 230 244 269 278 277 278 283 291 291 291 297 300
300 305 304 293 279 271 275 286 299 314 333 349 355 354 351 352 352 346 341 340 334 321 307 291 274 260 249 240 236 238 241 243 244 241 238 242 233 228 239 236 217 215 209 195 196 182 160 171 167 154 188 192 160 165 187 193 225 239 204 211 232 215 185 144 143 230 263 259 242 233 220 200 197 208 236 260 269 266 261 273 285 291 298 300 300 303 305
297 296 299 297 286 274 270 274 282 290 305 324 334 335 338 342 342 339 338 336 335 336 327 306 286 272 264 241 230 236 239 238 241 240 237 238 230 219 233 235 226 223 221 217 217 192 149 157 143 130 214 206 157 152 212 224 228 204 184 238 287 218 184 175 175 196 242 266 242 218 218 222 220 227 244 255 255 251 259 276 285 293 302 305 307 312 314
296 291 293 295 292 286 277 273 278 285 293 305 314 317 322 327 329 332 335 334 338 350 336 313 313 281 256 245 234 244 247 241 239 238 238 240 236 233 243 244 232 232 239 233 221 201 168 132 128 147 217 200 183 185 217 215 221 191 181 228 286 187 178 186 196 178 189 256 261 238 231 237 235 239 248 249 248 254 264 272 281 295 305 307 309 313 313
293 287 288 288 291 294 287 281 283 285 290 298 302 305 311 317 319 321 325 330 338 354 335 295 297 284 278 274 262 258 260 255 248 245 245 248 248 246 249 250 242 239 242 235 219 208 193 145 136 172 214 197 193 197 195 197 185 152 202 230 178 141 160 183 180 191 253 284 272 258 262 270 259 252 254 256 255 255 256 263 282 297 304 305 305 307 309
293 286 285 283 287 292 291 291 291 290 292 295 297 301 305 306 307 309 314 327 335 344 166 267 291 305 308 290 246 232 245 248 249 249 249 249 249 247 244 241 240 237 230 220 211 206 197 167 171 200 204 190 192 198 209 202 158 139 236 218 153 142 171 175 139 178 257 256 244 227 221 263 261 251 251 254 247 241 246 262 283 296 301 302 301 302 305
292 284 281 281 284 284 286 294 295 294 296 295 297 304 304 299 300 299 298 304 298 267 267 293 303 315 330 14 145 109 331 263 250 251 248 243 241 240 237 234 234 230 221 210 198 190 188 191 197 197 187 179 188 210 233 160 154 234 244 191 178 193 205 182 174 211 236 245 248 234 218 244 263 260 251 249 243 244 254 269 287 295 298 301 301 301 304
291 282 278 280 282 281 286 293 293 294 299 298 303 307 302 296 296 288 286 299 281 273 306 315 314 321 334 333 30 25 1 307 266 254 247 236 232 232 233 234 233 228 221 211 199 194 200 206 204 201 192 181 173 184 255 175 198 250 237 200 205 221 226 220 220 225 238 256 261 250 237 254 270 268 252 245 248 256 267 282 293 296 298 299 299 301 303
291 281 275 277 280 282 286 290 292 298 302 302 309 312 300 291 291 270 271 284 261 297 329 331 312 314 324 336 8 15 12 354 285 259 251 246 236 231 232 233 230 224 216 206 201 209 221 218 223 228 216 200 183 149 212 198 212 250 233 220 226 235 237 238 239 240 248 260 264 258 256 264 266 254 245 248 259 269 277 284 288 292 298 298 296 298 302
289 280 277 278 279 282 288 290 294 301 302 303 310 306 280 275 287 278 272 248 244 316 334 305 286 305 317 336 356 356 2 6 341 305 281 270 255 238 232 229 223 219 215 206 202 227 249 232 229 227 206 202 200 198 196 193 266 265 234 228 238 245 245 247 250 251 256 260 260 259 263 260 244 238 245 254 266 273 275 280 286 292 295 295 293 295 298
288 283 283 283 281 284 289 291 297 304 305 305 303 285 261 279 294 284 267 230 239 320 332 303 298 309 315 330 341 347 353 354 347 347 344 322 296 267 244 229 221 224 226 213 194 219 248 241 234 229 209 206 208 218 197 206 244 254 238 234 247 251 249 254 260 261 260 258 252 247 249 249 244 245 251 258 264 268 272 280 288 292 293 293 293 295 299
292 290 290 292 290 290 291 295 302 310 315 322 340 328 301 313 298 276 253 225 230 287 306 306 315 284 293 317 330 340 349 349 338 339 342 326 295 282 259 231 220 222 221 209 195 210 241 239 230 234 229 214 207 223 244 224 241 252 253 253 257 257 257 262 266 265 260 257 250 242 247 255 255 251 247 252 263 272 276 281 287 292 296 299 300 305 311
297 296 297 299 296 291 296 302 306 321 27 68 82 56 1 340 299 262 236 219 224 249 261 282 297 255 289 313 324 333 342 344 331 331 345 334 275 281 258 218 211 210 211 213 213 219 239 236 217 211 211 201 201 235 259 238 247 256 260 260 261 266 271 270 264 258 254 253 252 252 258 260 255 244 242 252 262 270 274 280 289 295 301 307 310 316 320
298 301 305 304 298 297 303 303 276 111 70 49 28 359 349 339 243 226 220 218 219 208 224 251 258 257 302 321 315 317 336 343 338 331 332 308 285 287 235 184 184 209 214 219 218 217 228 221 205 193 182 183 200 238 250 250 256 261 263 259 255 259 266 266 263 263 262 258 254 255 253 245 238 239 247 253 258 265 272 282 293 300 306 312 316 320 320
296 302 305 303 303 305 304 186 148 106 42 20 360 345 339 318 221 210 217 221 222 211 222 265 256 202 244 303 283 304 328 341 343 332 320 301 309 299 210 175 161 214 210 204 206 226 221 201 202 214 183 169 208 245 258 276 283 280 275 267 257 257 267 272 270 272 273 266 254 246 236 229 231 238 245 249 257 267 275 284 297 306 310 313 317 320 320
298 302 303 306 309 295 184 162 154 11 358 355 350 343 331 311 149 183 211 225 234 241 249 272 268 231 227 244 271 295 318 333 335 331 323 302 310 285 204 175 182 223 215 203 214 239 221 204 213 234 207 233 261 270 279 292 298 295 289 282 270 266 274 281 275 268 265 259 242 227 218 218 227 233 237 247 263 276 283 292 302 307 308 313 317 320 321
297 299 301 302 298 213 179 182 203 315 337 344 349 346 290 221 183 192 208 221 238 245 241 244 254 247 235 228 254 273 285 309 333 327 300 285 322 295 214 217 294 267 273 278 242 224 202 200 219 257 256 259 273 290 305 315 317 312 306 297 284 274 275 282 276 255 235 217 208 208 210 216 225 230 235 251 278 292 296 299 301 302 309 318 321 321 323
295 297 297 287 258 211 202 208 231 305 330 340 341 248 214 210 199 196 199 207 231 241 229 231 245 240 222 217 257 274 272 267 297 292 224 219 295 242 201 279 314 211 309 291 231 204 204 243 244 283 273 273 309 332 339 341 341 338 329 316 302 284 274 278 275 249 227 220 219 218 219 224 229 231 238 262 291 300 296 294 296 306 318 324 323 323 327
290 290 283 257 239 244 238 229 252 300 321 324 254 230 215 206 211 196 170 184 231 224 213 227 253 249 235 233 254 273 263 239 239 251 244 230 221 190 163 241 176 158 271 261 208 179 181 220 221 247 260 303 338 349 352 354 356 356 351 343 331 308 284 280 277 248 235 237 240 234 227 226 232 242 259 278 288 290 289 292 304 317 327 328 326 328 330
287 279 264 249 254 267 265 260 268 283 284 245 231 238 200 205 227 212 178 184 264 232 216 222 248 253 240 235 237 245 255 252 248 253 263 234 203 176 166 200 181 166 253 246 206 168 157 282 259 218 269 327 344 353 358 359 359 358 356 353 347 332 308 287 254 227 225 227 227 224 223 226 242 267 278 280 281 283 288 302 314 324 331 332 330 330 329
278 265 262 271 282 283 268 247 238 240 227 191 228 299 265 250 256 230 205 213 249 245 220 219 232 262 274 263 252 249 254 253 244 241 257 221 204 201 212 206 152 204 237 232 178 140 112 340 230 230 313 342 350 355 358 358 356 354 350 344 339 333 315 280 242 226 225 229 229 227 226 234 256 277 280 278 279 283 294 309 321 328 332 333 332 331 331
263 261 274 285 285 257 181 181 184 183 158 108 87 302 293 274 257 236 223 232 249 250 227 229 256 288 302 294 272 256 245 242 237 226 201 183 183 178 277 306 214 217 223 185 144 173 218 209 203 259 336 347 351 355 357 357 355 352 346 335 321 311 299 268 243 235 233 230 226 224 228 244 263 274 275 275 277 287 303 320 331 332 330 331 332 332 334
242 247 269 278 201 153 133 159 176 166 116 312 222 204 248 285 266 237 231 240 241 244 252 263 278 291 295 292 277 252 236 236 234 220 209 199 160 131 214 252 235 222 312 67 187 238 251 213 217 314 342 348 349 352 354 354 352 350 346 336 315 290 275 258 244 240 236 229 224 226 233 245 259 265 267 271 279 293 311 330 338 334 330 331 331 333 338
239 240 240 312 182 185 196 228 165 181 224 237 199 184 195 201 194 208 276 286 271 270 282 288 286 283 287 293 284 240 222 212 205 216 219 110 100 185 230 236 224 73 38 300 241 289 282 239 282 337 344 344 344 344 345 346 346 345 342 336 321 297 278 263 248 240 237 232 227 229 234 240 251 259 262 269 286 306 324 336 337 333 331 333 334 337 341
242 233 142 110 253 213 190 168 67 229 211 205 211 220 211 196 200 263 301 299 289 287 295 299 297 290 286 288 270 230 225 201 178 204 154 96 106 241 224 181 16 6 23 240 257 268 243 237 302 333 337 336 336 335 333 333 335 335 333 329 322 309 292 272 250 240 240 238 231 229 232 234 240 253 260 268 292 325 340 341 339 336 333 334 337 341 344
239 220 141 130 283 246 214 216 236 238 239 256 267 257 240 243 279 298 305 301 298 304 308 304 297 286 275 263 248 248 236 201 181 211 153 125 214 264 78 64 289 223 178 231 253 247 246 285 315 327 331 330 329 327 324 322 323 325 325 321 315 309 300 278 250 236 237 237 230 226 227 225 227 246 259 261 307 360 348 342 341 340 335 334 339 345 349
211 207 215 216 200 202 206 219 249 262 276 291 289 273 264 285 295 303 309 304 298 308 313 301 287 283 269 239 228 246 236 178 202 246 190 135 346 330 19 3 292 237 196 217 230 238 286 307 317 323 324 322 320 319 317 316 317 317 317 314 310 307 302 285 259 241 236 237 231 223 219 215 218 233 239 196 102 19 342 335 337 338 337 337 343 350 354
225 224 229 231 235 238 242 261 290 291 285 285 292 299 294 289 293 307 324 323 305 312 317 299 277 275 292 263 227 292 266 195 175 297 30 55 18 251 203 266 279 277 271 202 245 285 302 310 316 319 317 315 315 314 313 313 313 312 310 309 307 304 299 289 268 243 233 234 230 218 207 200 200 203 196 150 96 11 327 323 329 336 340 343 350 358 4
239 240 235 232 248 265 265 269 289 293 288 297 309 313 309 301 307 326 345 338 314 319 323 299 259 230 319 7 38 4 283 224 126 46 9 342 239 232 257 281 277 272 284 290 292 299 306 312 315 315 314 314 315 314 313 313 313 309 304 302 303 300 294 282 261 236 226 225 221 207 193 183 178 173 164 141 84 344 315 314 325 337 343 349 358 9 17
242 245 242 233 235 247 260 270 277 280 284 293 302 310 313 314 325 338 334 311 308 322 321 263 198 56 35 28 29 318 278 236 77 52 347 253 231 271 309 302 286 282 295 301 305 308 312 313 313 313 313 314 314 313 312 312 312 307 300 297 300 298 286 269 246 225 216 213 206 192 177 169 166 163 162 172 166 350 318 308 322 340 349 357 11 22 26
226 242 264 259 254 256 262 265 267 274 282 288 296 309 319 321 325 324 304 289 291 309 315 172 105 72 52 264 247 274 324 20 34 12 315 258 212 211 273 282 290 299 306 309 311 313 314 314 313 313 312 312 312 311 308 308 308 305 297 292 295 293 279 258 230 208 199 191 180 170 165 164 164 165 173 167 87 25 328 302 319 344 0 16 29 34 34